TimeCST,TemperatureF,Dew PointF,Humidity,Sea Level PressureIn,VisibilityMPH,Wind Direction,Wind SpeedMPH,Gust SpeedMPH,PrecipitationIn,Events,Conditions,WindDirDegrees,DateUTC
2:35 PM,73.4,69.8,88,29.99,10.0,South,16.1,-,N/A,,Mostly Cloudy,180,2014-01-10 20:35:00
2:55 PM,73.4,69.8,88,29.98,10.0,South,17.3,-,N/A,,Mostly Cloudy,170,2014-01-10 20:55:00
3:15 PM,73.4,69.8,88,29.98,10.0,South,18.4,-,N/A,,Mostly Cloudy,170,2014-01-10 21:15:00
3:35 PM,73.4,69.8,88,29.98,10.0,South,15.0,-,N/A,,Scattered Clouds,170,2014-01-10 21:35:00
3:55 PM,73.4,69.8,88,29.98,10.0,South,15.0,-,N/A,,Scattered Clouds,170,2014-01-10 21:55:00
4:15 PM,73.4,69.8,88,29.98,10.0,South,15.0,-,N/A,,Mostly Cloudy,180,2014-01-10 22:15:00
4:35 PM,73.4,69.8,88,29.97,10.0,South,21.9,-,N/A,,Overcast,170,2014-01-10 22:35:00
4:55 PM,73.4,69.8,88,29.97,10.0,South,18.4,-,N/A,,Mostly Cloudy,180,2014-01-10 22:55:00
5:15 PM,71.6,69.8,94,29.97,10.0,South,19.6,-,N/A,,Partly Cloudy,170,2014-01-10 23:15:00
5:35 PM,71.6,69.8,94,29.97,10.0,South,20.7,-,N/A,,Mostly Cloudy,180,2014-01-10 23:35:00
5:55 PM,73.4,69.8,88,29.97,10.0,South,23.0,-,N/A,,Overcast,180,2014-01-10 23:55:00
6:15 PM,73.4,69.8,88,29.98,10.0,South,19.6,-,N/A,,Overcast,180,2014-01-11 00:15:00
6:35 PM,73.4,69.8,88,29.98,10.0,South,20.7,-,N/A,,Overcast,180,2014-01-11 00:35:00
6:55 PM,71.6,69.8,94,29.98,10.0,South,20.7,-,N/A,,Overcast,180,2014-01-11 00:55:00
7:15 PM,71.6,69.8,94,29.98,10.0,South,20.7,-,N/A,,Overcast,180,2014-01-11 01:15:00
7:35 PM,71.6,69.8,94,29.99,10.0,South,19.6,-,N/A,,Mostly Cloudy,180,2014-01-11 01:35:00
7:55 PM,71.6,69.8,94,29.99,10.0,South,20.7,-,N/A,,Mostly Cloudy,180,2014-01-11 01:55:00
8:15 PM,71.6,69.8,94,29.99,10.0,South,20.7,-,N/A,,Mostly Cloudy,180,2014-01-11 02:15:00
8:35 PM,71.6,69.8,94,29.99,10.0,South,20.7,-,N/A,,Overcast,180,2014-01-11 02:35:00
8:55 PM,71.6,69.8,94,29.99,10.0,South,20.7,-,N/A,,Overcast,180,2014-01-11 02:55:00
9:15 PM,71.6,69.8,94,29.99,10.0,South,20.7,-,N/A,,Overcast,180,2014-01-11 03:15:00
9:35 PM,71.6,69.8,94,29.99,10.0,South,21.9,33.4,N/A,,Overcast,180,2014-01-11 03:35:00
9:55 PM,71.6,69.8,94,29.99,10.0,South,20.7,-,N/A,,Overcast,180,2014-01-11 03:55:00
10:15 PM,73.4,71.6,94,29.99,10.0,South,20.7,-,N/A,,Overcast,180,2014-01-11 04:15:00
10:35 PM,71.6,69.8,94,29.99,10.0,South,20.7,-,N/A,,Overcast,190,2014-01-11 04:35:00
10:55 PM,73.4,69.8,88,29.99,10.0,South,20.7,-,N/A,,Overcast,190,2014-01-11 04:55:00
11:15 PM,73.4,69.8,88,29.99,10.0,South,19.6,-,N/A,,Overcast,190,2014-01-11 05:15:00
11:35 PM,73.4,69.8,88,29.98,10.0,South,19.6,-,N/A,,Overcast,190,2014-01-11 05:35:00
11:55 PM,73.4,69.8,88,29.98,10.0,South,19.6,-,N/A,,Overcast,190,2014-01-11 05:55:00